Location: Festilli
(46.4000°N, 11.6667°E)
Time: 15:36:07
(UTC+00:00)

Cosmos 2322 - Pass Details

Date: 03 March 2021
Orbit: 842 x 853 km, 71.0° (Epoch: 14 April)

Event Time Altitude Azimuth Distance (km) Brightness Sun altitude
Rises 19:43:59 0° 220° (SW) 3,411 7.1 -28.2°
Reaches altitude 10° 19:46:30 10° 224° (SW) 2,479 6.4 -28.6°
Maximum altitude 19:52:04 54° 302° (WNW) 1,034 4.4 -29.5°
Drops below altitude 10° 19:57:40 10° 19° (NNE) 2,491 6.2 -30.3°
Sets 20:00:12 0° 24° (NNE) 3,429 6.9 -30.7°
